Date,TemperatureHighF,TemperatureAvgF,TemperatureLowF,DewpointHighF,DewpointAvgF,DewpointLowF,HumidityHigh,HumidityAvg,HumidityLow,PressureMaxIn,PressureMinIn,WindSpeedMaxMPH,WindSpeedAvgMPH,GustSpeedMaxMPH,PrecipitationSumIn
2013-1-1,37.9,33.7,21.1,29.7,21.9,7.1,74,62,52,29.93,29.71,41,18,41,0.00
2013-1-2,30.2,22.6,13.9,19.0,11.2,2.7,72,61,50,30.10,29.89,32,14,32,0.00
2013-1-3,26.7,17.9,9.0,17.9,5.1,-0.9,69,58,31,30.13,29.99,26,11,28,0.00
2013-1-4,38.9,33.3,26.0,28.5,24.3,17.1,80,69,59,29.99,29.80,30,14,30,0.00
2013-1-5,41.7,36.4,30.2,28.8,24.2,17.2,77,62,44,30.27,29.85,29,10,29,0.00
2013-1-6,43.2,36.9,29.9,33.4,28.9,20.1,87,73,62,30.23,29.94,20,7,22,0.00
2013-1-7,39.9,36.5,30.6,31.7,29.6,24.6,84,76,63,30.40,29.95,23,8,23,0.00
2013-1-8,45.9,38.5,30.1,34.9,30.5,24.2,81,73,59,30.37,30.25,31,8,31,0.00
2013-1-9,46.4,39.4,32.0,38.7,31.9,23.9,84,74,59,30.40,29.96,32,7,33,0.00
2013-1-10,45.9,42.7,36.6,32.5,28.6,25.6,70,57,48,30.53,30.01,46,18,46,0.00
2013-1-11,42.1,37.9,32.7,36.8,31.7,26.1,88,78,68,30.51,30.23,16,4,16,0.08
2013-1-12,44.8,42.4,39.7,41.5,39.2,36.4,89,88,87,30.23,30.12,13,1,16,0.02
2013-1-13,50.4,46.0,42.7,47.2,42.9,39.7,89,89,88,30.15,29.98,14,5,15,0.00
2013-1-14,58.9,51.0,43.4,50.1,43.1,29.6,89,75,54,30.25,29.84,27,11,28,0.00
2013-1-15,43.3,37.7,32.6,31.1,27.9,25.2,88,68,58,30.31,30.13,17,5,18,0.00
2013-1-16,37.1,34.6,31.2,33.8,31.5,28.1,89,88,83,30.13,29.81,16,7,17,0.18
2013-1-17,42.4,35.0,21.7,34.0,23.2,1.6,84,62,35,30.19,29.86,26,14,29,0.00
2013-1-18,34.6,25.4,19.1,27.1,9.9,-0.2,74,52,35,30.46,30.19,38,16,38,0.00
2013-1-19,48.4,43.1,35.8,37.4,33.1,27.3,81,68,47,30.20,29.69,34,16,39,0.00
2013-1-20,52.0,38.8,25.2,36.7,24.5,6.9,79,57,40,30.05,29.52,40,21,50,0.00
2013-1-21,30.0,26.0,22.2,22.0,16.3,7.6,88,68,43,30.09,29.74,20,7,21,0.00
2013-1-22,25.5,20.3,13.1,20.7,8.9,-2.5,88,61,45,30.10,29.77,28,18,35,0.00
2013-1-23,17.4,12.0,5.8,3.3,-2.4,-8.6,67,52,37,30.14,30.05,32,16,33,0.00
2013-1-24,20.8,14.5,6.0,3.5,-1.6,-5.9,66,49,35,30.27,30.05,37,19,41,0.00
2013-1-25,24.6,19.2,11.7,14.4,3.6,-4.0,84,53,30,30.28,30.00,29,11,29,0.00
2013-1-26,24.4,19.1,14.4,11.3,5.9,-1.9,83,57,35,30.30,30.01,32,16,37,0.00
2013-1-27,30.6,24.4,14.6,11.3,6.5,1.9,69,46,34,30.46,30.30,30,12,32,0.00
2013-1-28,32.3,28.6,23.3,29.1,20.6,7.1,89,74,39,30.41,30.01,18,4,18,0.00
2013-1-29,38.2,33.7,27.1,35.0,30.4,24.0,89,87,84,30.20,29.99,12,2,14,0.19
2013-1-30,58.1,51.1,38.0,54.3,47.6,34.8,88,88,86,29.99,29.03,58,12,64,0.13
2013-1-31,58.0,39.9,30.1,54.3,27.6,13.1,88,62,45,29.71,28.96,58,23,64,0.04
2013-2-1,32.4,29.9,25.4,19.4,14.1,9.2,64,52,40,30.07,29.71,36,17,38,0.00
2013-2-2,32.2,26.5,20.4,19.1,12.6,5.6,64,55,42,30.26,30.06,26,12,26,0.00
2013-2-3,28.9,25.9,24.0,23.1,20.9,16.6,87,81,62,30.06,29.72,20,9,25,0.00
2013-2-4,30.2,27.0,24.2,22.8,15.9,10.8,86,64,48,29.93,29.71,41,19,43,0.00
2013-2-5,29.7,26.4,22.7,24.7,15.5,7.2,88,64,49,30.03,29.93,24,5,24,0.00
2013-2-6,37.8,31.7,26.8,27.8,22.6,10.2,88,71,45,30.29,29.92,27,10,28,0.03
2013-2-7,30.4,25.6,20.0,23.2,8.3,0.5,75,48,30,30.53,30.29,26,7,26,0.00
2013-2-8,34.7,31.5,22.3,30.8,27.4,17.8,89,85,74,30.49,29.51,57,12,57,0.02
2013-2-9,22.7,20.5,15.1,19.8,14.7,7.7,91,79,62,30.19,29.51,44,22,57,0.00
2013-2-10,43.8,28.4,16.7,27.0,13.7,4.0,78,55,29,30.40,30.19,22,7,24,0.01
2013-2-11,44.0,36.6,28.9,40.7,31.8,17.9,89,83,60,30.32,29.59,14,5,14,0.23
2013-2-12,43.3,39.7,35.5,36.9,31.0,28.0,89,71,58,29.87,29.58,33,16,35,0.01
2013-2-13,46.1,37.2,33.5,33.5,29.2,26.0,84,73,55,29.87,29.68,18,6,18,0.00
2013-2-14,45.2,37.6,33.9,32.3,27.3,21.2,82,67,48,29.99,29.71,18,7,19,0.00
2013-2-15,49.2,40.3,33.9,38.7,34.6,28.8,88,80,64,30.00,29.90,17,8,19,0.00
2013-2-16,38.8,35.6,31.2,34.3,29.8,22.0,88,80,61,29.95,29.66,23,8,25,0.00
2013-2-17,31.2,23.7,19.5,23.6,15.0,6.7,89,70,50,29.68,29.35,44,26,47,0.01
2013-2-18,32.2,25.8,18.3,13.8,9.0,3.3,69,50,29,30.16,29.67,44,22,50,0.00
2013-2-19,46.8,38.0,27.6,39.9,28.5,9.6,88,69,46,30.16,29.53,21,4,21,0.36
2013-2-20,41.8,33.4,28.7,38.2,22.9,15.6,87,66,48,29.78,29.53,37,22,38,0.01
2013-2-21,32.1,28.9,26.7,20.8,17.9,13.5,74,63,51,30.24,29.77,34,20,39,0.00
2013-2-22,41.4,34.0,27.0,29.0,25.2,20.3,79,70,57,30.39,30.22,23,6,28,0.00
2013-2-23,38.5,37.1,34.9,35.0,32.3,27.8,88,83,75,30.33,29.88,13,2,15,0.19
2013-2-24,39.3,35.6,31.3,36.0,32.5,28.4,89,88,87,29.93,29.69,28,11,30,0.00
2013-2-25,43.6,36.1,31.3,36.1,31.0,28.3,89,82,66,30.26,29.92,16,5,16,0.01
2013-2-26,47.0,39.2,34.4,38.6,33.7,31.2,88,81,67,30.35,30.12,13,1,20,0.00
2013-2-27,42.2,41.0,38.4,38.9,37.6,35.3,89,88,85,30.12,29.53,28,10,28,0.19
2013-2-28,49.5,39.9,35.2,42.6,35.9,32.3,89,86,73,29.64,29.52,12,4,13,0.01
2013-3-1,40.5,38.2,36.5,34.4,32.4,29.9,88,80,70,29.67,29.53,18,9,19,0.00
2013-3-2,44.0,38.3,34.3,34.4,30.5,28.1,80,73,64,29.67,29.61,16,7,18,0.00
2013-3-3,40.4,36.4,33.0,34.3,30.8,27.5,88,80,72,29.63,29.55,19,10,23,0.00
2013-3-4,39.0,35.0,32.3,30.5,27.2,24.4,87,73,62,29.76,29.56,36,20,36,0.00
2013-3-5,44.1,38.5,32.6,36.3,31.8,24.9,87,77,64,30.06,29.76,24,8,29,0.00
2013-3-6,41.0,38.7,36.8,36.2,33.9,31.1,88,83,72,30.11,30.00,38,14,43,0.05
2013-3-7,37.4,33.7,31.1,32.1,30.4,28.0,89,88,79,30.03,29.94,39,19,46,0.08
2013-3-8,43.2,36.4,30.5,34.4,28.3,24.7,89,74,52,30.15,29.92,37,15,45,0.05
2013-3-9,43.3,37.2,32.1,35.1,30.5,24.6,88,77,62,30.36,30.14,21,7,26,0.00
2013-3-10,47.0,38.6,32.1,37.6,33.2,28.7,88,81,67,30.41,30.29,14,4,16,0.00
2013-3-11,50.8,42.4,37.0,42.7,37.9,33.5,88,84,72,30.29,30.11,20,8,21,0.00
2013-3-12,51.1,46.2,41.4,47.7,42.8,38.1,88,88,86,30.11,29.71,25,6,28,0.18
2013-3-13,49.4,43.6,37.5,41.9,32.0,24.3,86,64,41,29.78,29.68,24,12,24,0.00
2013-3-14,37.6,31.8,24.1,28.9,19.1,11.6,71,59,47,29.84,29.69,34,18,36,0.00
2013-3-15,41.3,32.6,22.1,30.9,19.3,8.9,75,58,34,29.86,29.61,32,16,32,0.00
2013-3-16,42.8,34.5,30.6,24.0,17.8,11.2,68,51,29,29.90,29.74,19,6,20,0.00
2013-3-17,36.0,31.4,24.2,20.1,13.4,3.9,68,48,32,30.38,29.89,26,12,30,0.00
2013-3-18,36.8,30.2,21.9,29.7,18.3,3.6,88,62,39,30.46,30.09,17,6,26,0.00
2013-3-19,37.6,33.6,27.9,34.7,30.4,24.3,89,88,86,30.10,29.58,29,12,34,0.42
2013-3-20,38.7,34.3,27.9,27.0,24.4,21.7,87,67,51,29.81,29.70,31,16,33,0.01
2013-3-21,40.1,33.1,31.4,30.7,25.6,18.6,88,74,55,29.80,29.59,19,4,22,0.00
2013-3-22,40.0,35.0,31.0,27.0,23.4,18.1,74,63,45,29.73,29.59,26,14,26,0.00
2013-3-23,43.4,37.6,31.3,27.5,24.1,20.3,77,59,40,29.76,29.60,33,19,37,0.00
2013-3-24,47.6,39.5,34.4,36.3,29.6,24.1,82,68,46,29.80,29.72,25,7,28,0.00
2013-3-25,46.3,39.8,34.8,38.7,33.6,27.6,88,79,71,29.74,29.52,24,9,28,0.02
2013-3-26,48.7,41.5,35.9,34.3,27.7,22.7,88,59,39,29.77,29.55,25,9,26,0.00
2013-3-27,50.6,43.5,36.6,35.6,30.3,25.5,87,61,39,29.87,29.73,26,12,30,0.00
2013-3-28,47.9,43.0,38.5,37.9,35.4,32.1,87,75,55,30.01,29.86,16,6,18,0.00
2013-3-29,56.6,45.9,39.8,40.3,36.5,33.6,81,70,49,30.04,29.96,18,7,22,0.01
2013-3-30,51.6,44.7,39.8,40.2,35.2,23.7,83,70,37,30.11,30.00,15,4,16,0.00
2013-7-2,79.2,66.3,61.4,72.8,61.6,57.5,88,85,79,30.21,30.13,17,4,18,0.00
2013-7-3,83.9,73.8,61.5,71.9,67.3,57.8,88,81,65,30.19,30.11,22,8,24,0.00
2013-7-4,86.4,78.7,71.3,73.6,71.0,67.2,87,78,63,30.19,30.07,21,8,23,0.00
2013-7-5,88.1,80.3,74.9,75.3,71.7,69.7,85,76,60,30.15,30.01,21,7,22,0.00
2013-7-6,86.8,80.0,75.1,72.2,69.2,64.6,85,70,56,30.06,29.95,23,8,25,0.00
2013-7-7,87.7,77.5,71.7,73.6,68.9,64.7,86,75,57,30.00,29.88,16,4,17,0.00
2013-7-8,79.5,72.9,65.9,73.3,67.4,61.9,87,83,75,30.07,29.89,15,4,18,0.00
2013-7-9,72.7,68.1,65.3,66.8,63.6,61.3,87,86,80,30.10,30.02,11,1,11,0.00
2013-7-10,83.5,73.1,67.1,73.0,68.3,63.1,87,85,70,30.03,29.77,20,5,20,0.00
2013-7-11,79.2,74.6,70.5,72.4,69.7,65.3,87,85,78,29.96,29.77,17,5,19,0.06
2013-7-13,75.2,70.0,66.4,67.9,65.0,62.0,87,84,78,30.31,30.22,5,1,12,0.00
2013-7-14,84.1,76.8,69.3,74.3,70.6,65.3,87,81,64,30.29,30.17,6,1,13,0.00
2013-7-15,86.9,79.6,73.5,76.2,72.1,69.1,87,78,68,30.18,30.08,7,2,10,0.00
2013-7-16,91.1,79.4,73.7,74.8,70.5,67.5,84,75,59,30.16,30.09,10,2,13,0.00
2013-7-17,84.8,78.6,72.7,74.0,71.8,68.1,86,80,70,30.17,29.95,14,4,18,0.00
2013-7-18,85.4,79.5,74.3,74.3,72.4,69.8,86,79,65,30.01,29.91,10,3,14,0.00
2013-7-19,91.8,83.1,76.9,76.6,74.0,72.3,86,75,54,29.90,29.69,26,13,30,0.00
2013-7-20,87.6,80.1,71.9,75.3,71.1,64.4,86,74,60,29.83,29.61,24,8,26,0.00
2013-7-21,80.2,72.9,66.6,68.4,65.4,62.1,87,78,65,29.99,29.82,12,1,14,0.00
2013-7-22,70.1,67.3,66.3,66.1,63.3,62.3,87,87,86,30.00,29.97,4,0,6,0.00
2013-7-23,76.3,71.1,69.0,71.9,67.0,64.9,88,87,85,29.59,29.53,34,2,37,0.83
2013-7-24,80.7,72.7,61.9,70.2,63.5,52.2,88,73,63,30.01,29.58,21,8,24,0.00
2013-7-25,63.9,61.9,60.0,58.5,56.8,53.7,88,83,73,30.10,29.99,19,7,20,0.40
2013-7-26,69.7,66.2,61.9,64.8,61.9,58.0,88,86,83,30.01,29.91,21,10,23,0.37
2013-7-27,79.0,71.2,64.4,70.3,65.5,60.1,87,83,70,30.06,29.97,16,4,18,0.00
2013-7-28,77.6,70.0,67.0,70.5,65.3,63.0,87,85,77,30.02,29.97,14,2,16,0.01
2013-7-29,78.4,71.5,66.9,72.1,66.5,62.7,87,84,71,30.04,29.96,12,2,15,0.16
2013-7-30,80.1,72.1,65.4,69.5,63.3,57.0,86,74,50,30.09,30.02,15,4,17,0.00
2013-7-31,79.9,72.3,66.3,67.7,64.1,57.4,85,76,60,30.13,30.00,12,3,14,0.00
2013-8-1,77.0,71.1,66.2,69.3,64.6,61.5,85,80,68,30.01,29.81,20,5,21,0.00
2013-8-2,82.6,73.2,65.9,70.9,64.4,58.1,87,75,47,29.86,29.77,23,5,26,0.14
2013-8-3,77.6,71.8,65.2,66.2,63.1,56.5,83,74,57,29.83,29.77,22,10,24,0.00
2013-8-4,81.0,68.8,60.9,67.7,59.8,54.0,84,73,53,29.91,29.76,31,5,34,0.00
2013-9-25,56.2,52.5,49.6,41.6,34.2,29.0,58,50,43,29.98,29.92,6,0,6,0.00